Total_Precipitation_Accumulation
0.45 0.45 0.41 0.36 0.33 0.33 0.34 0.37 0.39 0.40 0.42 0.45 0.49 0.52 0.53 0.54 0.55 0.58 0.58 0.63 0.69 0.74 0.79 0.91 0.99 1.02 1.06 1.10 1.20 1.28 1.43 1.55 1.42 1.22 1.16 1.22 1.27 1.24 1.06 0.86 0.69 0.62 0.52
0.60 0.65 0.71 0.69 0.62 0.54 0.41 0.38 0.42 0.47 0.49 0.50 0.53 0.54 0.52 0.55 0.63 0.70 0.69 0.73 0.79 0.80 0.81 0.84 0.83 0.88 0.99 1.01 1.07 1.11 1.22 1.42 1.38 1.29 1.33 1.36 1.38 1.32 1.23 1.03 0.83 0.71 0.65
0.85 1.00 1.11 1.09 0.91 0.69 0.50 0.43 0.45 0.50 0.54 0.55 0.61 0.68 0.70 0.70 0.71 0.76 0.82 0.84 0.77 0.73 0.73 0.73 0.70 0.72 0.78 0.86 0.96 0.95 0.97 1.10 1.24 1.31 1.42 1.49 1.56 1.45 1.26 1.11 0.97 0.87 0.69
0.70 0.89 1.03 1.10 0.91 0.68 0.54 0.48 0.42 0.41 0.44 0.50 0.58 0.69 0.78 0.83 0.85 0.82 0.77 0.76 0.71 0.66 0.62 0.59 0.61 0.64 0.66 0.70 0.80 0.85 0.87 0.96 1.09 1.20 1.37 1.58 1.59 1.64 1.50 1.27 1.16 1.09 0.85
0.39 0.56 0.72 0.82 0.68 0.47 0.36 0.31 0.29 0.34 0.41 0.52 0.63 0.71 0.83 0.90 0.85 0.82 0.74 0.71 0.70 0.63 0.56 0.52 0.50 0.49 0.51 0.57 0.60 0.66 0.74 0.84 0.89 0.98 1.14 1.38 1.52 1.61 1.57 1.37 1.23 1.23 1.10
0.32 0.38 0.49 0.54 0.46 0.32 0.20 0.16 0.20 0.28 0.37 0.45 0.52 0.58 0.62 0.58 0.58 0.55 0.52 0.51 0.53 0.51 0.48 0.48 0.44 0.39 0.41 0.43 0.40 0.46 0.54 0.60 0.71 0.85 0.93 1.13 1.33 1.41 1.52 1.60 1.47 1.31 1.25
0.35 0.35 0.41 0.45 0.40 0.28 0.16 0.15 0.19 0.26 0.32 0.38 0.40 0.44 0.45 0.46 0.36 0.31 0.30 0.32 0.37 0.40 0.42 0.44 0.35 0.30 0.36 0.39 0.36 0.32 0.35 0.38 0.46 0.64 0.77 0.88 1.10 1.29 1.45 1.62 1.60 1.52 1.43
0.31 0.32 0.41 0.49 0.45 0.36 0.29 0.27 0.29 0.34 0.37 0.39 0.38 0.39 0.44 0.41 0.31 0.23 0.21 0.21 0.27 0.31 0.36 0.42 0.42 0.38 0.37 0.40 0.39 0.35 0.31 0.31 0.33 0.39 0.50 0.67 0.92 1.28 1.46 1.52 1.65 1.69 1.66
0.29 0.35 0.41 0.49 0.51 0.45 0.43 0.43 0.45 0.45 0.44 0.43 0.41 0.41 0.44 0.46 0.35 0.22 0.19 0.22 0.30 0.32 0.35 0.39 0.43 0.42 0.41 0.31 0.33 0.36 0.36 0.35 0.30 0.34 0.40 0.52 0.71 0.98 1.36 1.49 1.52 1.46 1.43
0.32 0.38 0.44 0.54 0.61 0.56 0.55 0.56 0.56 0.58 0.53 0.49 0.46 0.49 0.53 0.58 0.51 0.28 0.22 0.26 0.34 0.41 0.49 0.49 0.43 0.40 0.37 0.30 0.33 0.39 0.37 0.35 0.36 0.36 0.37 0.41 0.47 0.64 0.93 1.17 1.21 1.15 1.06
0.31 0.36 0.46 0.61 0.68 0.67 0.71 0.74 0.71 0.67 0.66 0.66 0.61 0.60 0.65 0.67 0.60 0.34 0.24 0.31 0.39 0.49 0.54 0.56 0.52 0.42 0.31 0.29 0.32 0.39 0.39 0.39 0.49 0.51 0.51 0.50 0.53 0.57 0.65 0.83 1.01 1.04 0.94
0.34 0.41 0.53 0.61 0.57 0.56 0.74 0.82 0.83 0.82 0.79 0.79 0.78 0.72 0.72 0.74 0.61 0.42 0.26 0.33 0.44 0.57 0.61 0.63 0.64 0.47 0.35 0.34 0.33 0.34 0.36 0.37 0.47 0.55 0.54 0.51 0.51 0.51 0.55 0.67 0.82 0.91 0.98
0.42 0.47 0.55 0.58 0.64 0.74 0.81 0.84 0.88 0.91 0.87 0.82 0.83 0.82 0.81 0.87 0.79 0.44 0.34 0.41 0.49 0.59 0.65 0.65 0.62 0.52 0.42 0.38 0.41 0.41 0.37 0.39 0.46 0.52 0.53 0.46 0.43 0.48 0.58 0.71 0.83 0.90 0.94
0.49 0.49 0.52 0.58 0.65 0.79 0.94 0.94 0.90 0.89 0.91 0.91 0.88 0.85 0.86 0.92 0.93 0.74 0.58 0.61 0.65 0.70 0.70 0.69 0.61 0.58 0.51 0.49 0.51 0.46 0.41 0.47 0.51 0.52 0.55 0.56 0.55 0.57 0.61 0.67 0.75 0.80 0.86
0.60 0.55 0.54 0.59 0.68 0.81 0.90 0.97 0.90 0.88 0.76 0.77 0.79 0.81 0.80 0.85 0.87 0.75 0.71 0.82 0.90 0.91 0.88 0.89 0.84 0.77 0.67 0.62 0.62 0.62 0.60 0.63 0.59 0.59 0.64 0.70 0.69 0.62 0.59 0.63 0.72 0.73 0.71
0.77 0.71 0.68 0.70 0.75 0.79 0.86 0.86 0.73 0.64 0.53 0.49 0.49 0.52 0.52 0.56 0.65 0.62 0.61 0.74 0.84 0.91 0.91 0.92 0.91 0.85 0.78 0.75 0.76 0.75 0.71 0.70 0.66 0.65 0.67 0.72 0.75 0.68 0.61 0.61 0.67 0.69 0.66
0.89 0.86 0.84 0.78 0.80 0.85 0.90 0.95 0.93 0.77 0.62 0.51 0.42 0.36 0.37 0.42 0.52 0.56 0.60 0.71 0.81 0.88 0.88 0.89 0.86 0.85 0.79 0.78 0.79 0.78 0.74 0.72 0.72 0.71 0.71 0.72 0.76 0.74 0.70 0.64 0.62 0.64 0.66
0.91 0.89 0.88 0.86 0.84 0.87 0.90 0.92 0.98 1.02 0.93 0.77 0.57 0.43 0.37 0.37 0.42 0.52 0.60 0.73 0.85 0.87 0.84 0.86 0.84 0.83 0.81 0.79 0.76 0.77 0.78 0.78 0.74 0.70 0.72 0.72 0.74 0.71 0.72 0.66 0.60 0.57 0.60
0.89 0.87 0.83 0.84 0.85 0.84 0.86 0.87 0.88 0.96 0.97 0.92 0.79 0.61 0.48 0.41 0.42 0.52 0.58 0.68 0.84 0.89 0.88 0.85 0.81 0.76 0.75 0.76 0.74 0.72 0.72 0.71 0.71 0.73 0.71 0.69 0.72 0.67 0.63 0.62 0.61 0.59 0.59
0.90 0.82 0.76 0.76 0.80 0.81 0.83 0.86 0.85 0.91 0.93 0.94 0.86 0.71 0.57 0.48 0.50 0.55 0.59 0.72 0.88 0.90 0.84 0.79 0.77 0.71 0.69 0.70 0.71 0.70 0.69 0.69 0.70 0.74 0.73 0.70 0.68 0.62 0.55 0.55 0.58 0.57 0.51
0.92 0.82 0.69 0.68 0.71 0.76 0.82 0.84 0.83 0.85 0.86 0.89 0.79 0.59 0.48 0.46 0.52 0.59 0.67 0.79 0.88 0.82 0.75 0.71 0.70 0.64 0.61 0.59 0.59 0.59 0.61 0.63 0.64 0.67 0.68 0.68 0.68 0.62 0.54 0.52 0.55 0.57 0.54
0.97 0.89 0.77 0.66 0.64 0.70 0.76 0.80 0.82 0.80 0.79 0.80 0.72 0.53 0.43 0.41 0.47 0.54 0.61 0.69 0.75 0.72 0.68 0.64 0.60 0.53 0.50 0.48 0.47 0.50 0.54 0.57 0.59 0.61 0.61 0.62 0.66 0.60 0.55 0.52 0.51 0.53 0.57
0.90 0.84 0.74 0.58 0.57 0.63 0.70 0.79 0.79 0.73 0.75 0.74 0.65 0.53 0.46 0.47 0.47 0.51 0.58 0.61 0.63 0.65 0.63 0.55 0.48 0.44 0.42 0.40 0.38 0.39 0.43 0.46 0.47 0.49 0.51 0.54 0.58 0.56 0.54 0.51 0.48 0.49 0.50
0.76 0.76 0.73 0.55 0.52 0.65 0.72 0.77 0.74 0.66 0.68 0.65 0.54 0.49 0.46 0.46 0.45 0.46 0.50 0.51 0.52 0.52 0.49 0.45 0.40 0.37 0.34 0.34 0.35 0.35 0.36 0.38 0.39 0.43 0.43 0.44 0.49 0.52 0.52 0.49 0.46 0.46 0.49
0.71 0.69 0.72 0.61 0.53 0.61 0.70 0.73 0.69 0.62 0.57 0.50 0.42 0.41 0.40 0.39 0.42 0.44 0.43 0.45 0.46 0.44 0.39 0.36 0.37 0.36 0.32 0.30 0.30 0.31 0.31 0.31 0.33 0.37 0.40 0.40 0.42 0.47 0.47 0.44 0.41 0.43 0.47
0.69 0.67 0.70 0.67 0.60 0.60 0.66 0.68 0.64 0.54 0.46 0.38 0.33 0.32 0.34 0.34 0.35 0.37 0.36 0.37 0.38 0.37 0.36 0.36 0.33 0.29 0.26 0.24 0.23 0.25 0.25 0.25 0.26 0.29 0.35 0.40 0.43 0.46 0.46 0.43 0.38 0.39 0.42